STARLINK-32599, 62048

Orbit data source: Space-Track

STARLINK-32599, 62048 is a payload satellite owned by SpaceX/Seattle (US) in LEO that was launched on Thu, 21 Nov 2024 UTC via an FALCON 9 launch vehicle from the Air Force Eastern Test Range (AFETR). Payload-class satellites include a variety of spacecraft equipped with specific instruments for various scientific and technological missions. These include communications satellites like Starlink; space stations such as the ISS; scientific satellites like the Hubble; Earth observation satellites from companies like Planet Labs, Umbra, and HawkEye 360; GPS; miniature CubeSats for education and research; and military/defense satellites.

Loading next visibility...
Identifier
62048, 2024-216S
Orbit
LEO
Country
Flag of USUS
Related business
Manufacturer
SpaceX/Seattle
Mission
Operational Commercial Communications
Bus & Motor
STARLINK V2M, Unknown motor
Mass
730 kg wet, ~700 kg dry
Launch date (UTC)
2024-11-21 (2 years ago)
Launch vehicle
FALCON 9
Launch site
Air Force Eastern Test Range (AFETR)
Object type
Payload
Rocket body
Debris
Shape & HBR
Box + 2 Pan, 17.7 m
Radar Cross Section
33.884 m², Large (>1 m²)

Expand to show TLE details & history
Last TLE update: 17 hours ago

TLE from 17 hours ago
0 STARLINK-32599
1 62048U 24216S   26236.42121322  .00020909  00000-0  76702-3 0  9996
2 62048  42.9996  36.3541 0001398 180.3839 179.7011 15.27587035 99441
Epoch: 2026-08-24T10:06Z
TLE epoch observation values (Epoch: 2026-08-24T10:06:32.822Z)
Latitude
-0.00006°
Longitude
-87.98588°
Altitude
483.762 km
Speed
7.625 km/s
True Right ascension
02h 25m 24s
True Declination
0° 00' 00"
Sunlit
Object was in full shadow at epoch
Visualization orbit readout
Latitude
Unknown
Longitude
Unknown
Altitude
Unknown
Speed
Unknown
Apparent Right ascension
Unknown
Apparent Declination
Unknown
Sunlit
N/A
Visualization observer readout
Local Sidereal Time
18:43:13
Azimuth
Unknown
Elevation
Unknown
Doppler factor
Unknown
Orbital elements
Apogee altitude
485.933 km
Perigee altitude
484.014 km
Semi-major axis
6,863.11 km
Eccentricity
0.00014
Inclination
42.9996°
RAAN
36.3541°
Arg. of periapsis
180.3839°
True anomaly
179.70118°
Mean anomaly
179.7011°
Eccentric anomaly
179.70114°
Mean motion
3.81735 °/min
Orbital period
94.31 mins
BSTAR
0.00076702
Loading maneuver chart data...
Computing Atmospheric mass density...
Loading historical data...
Loading historical data...
Loading historical data...
Loading historical data...
Loading historical data...
Loading historical data...
Loading historical data...

Documentation

Showing up to 5 results
|